Location: Cieszkowy
(50.3290°N, 20.5336°E)
Time: 23:44:08
(UTC+00:00)

Cosmos 921 Rocket - Pass Details

Date: 15 June 2024
Orbit: 568 x 625 km, 75.8° (Epoch: 18 July)

Event Time Altitude Azimuth Distance (km) Brightness Sun altitude
Rises 00:40:15 0° 341° (NNW) 2,835 7.1 -11.6°
Reaches altitude 10° 00:42:32 10° 346° (NNW) 1,920 6.3 -11.4°
Maximum altitude 00:46:44 57° 66° (ENE) 690 3.6 -11.1°
Drops below altitude 10° 00:50:50 10° 145° (SE) 1,878 5.3 -10.7°
Sets 00:53:03 0° 149° (SSE) 2,766 6.1 -10.6°
